Location: Newark
(51.2625°N, 13.3939°E)
Time: 18:05:22
(UTC+00:00)

Explorer 7 - Pass Details

Date: 18 November 2019
Orbit: 485 x 680 km, 50.3° (Epoch: 13 December)

Event Time Altitude Azimuth Distance (km) Brightness Sun altitude
Rises 05:42:24 0° 281° (W) 2,719 - -7.2°
Exits shadow 05:44:22 - 270° (W) 2,046 9.1 -6.9°
Reaches altitude 10° 05:45:15 10° 262° (W) 1,783 8.9 -6.8°
Maximum altitude 05:47:58 18° 220° (SW) 1,337 8.6 -6.4°
Drops below altitude 10° 05:50:35 10° 177° (S) 1,714 9.7 -6.0°
Sets 05:53:15 0° 157° (SSE) 2,569 11.0 -5.7°
